,,Stat5,,Stat1,,Stat2,,Stat3,,Stat4,,Wind1,,Wind1,
time,status,PA1M_AVG,status,PR1M_SUM,status,RH1M_AVG,status,SR1M_AVG,status,TA1M_AVG,status,W1dAve1m,status,W1sAve1m,
2000-09-29, 00:00:00,VALID,917.997,VALID,0,VALID,99.6493,VALID,-0.0169808,VALID,19.3111,VALID,242,VALID,0.89363,
2000-09-29, 00:01:00,VALID,917.99,VALID,0,VALID,99.648,VALID,-0.0169808,VALID,19.321,VALID,240,VALID,0.582648,
2000-09-29, 00:02:00,VALID,918.007,VALID,0,VALID,99.6544,VALID,0,VALID,19.3173,VALID,232,VALID,0.933388,
2000-09-29, 00:03:00,VALID,917.999,VALID,0,VALID,99.6582,VALID,-0.0169808,VALID,19.3143,VALID,219,VALID,0.965049,
2000-09-29, 00:04:00,VALID,918.001,VALID,0,VALID,99.6544,VALID,-0.0169808,VALID,19.3078,VALID,221,VALID,1.10482,
2000-09-29, 00:05:00,VALID,918.01,VALID,0,VALID,99.6684,VALID,0,VALID,19.3076,VALID,228,VALID,1.34211,
2000-09-29, 00:06:00,VALID,918.011,VALID,0,VALID,99.662,VALID,0,VALID,19.3039,VALID,214,VALID,1.22754,
2000-09-29, 00:07:00,VALID,918.017,VALID,0,VALID,99.6696,VALID,0,VALID,19.2877,VALID,221,VALID,0.894727,
2000-09-29, 00:08:00,VALID,917.996,VALID,0,VALID,99.6518,VALID,0,VALID,19.2885,VALID,211,VALID,1.40084,
2000-09-29, 00:09:00,VALID,917.984,VALID,0,VALID,99.6378,VALID,-0.0169808,VALID,19.2626,VALID,211,VALID,1.03594,
2000-09-29, 00:10:00,VALID,917.959,VALID,0,VALID,99.6544,VALID,0,VALID,19.2494,VALID,195,VALID,0.594727,
2000-09-29, 00:11:00,VALID,917.936,VALID,0,VALID,99.6735,VALID,0,VALID,19.2494,VALID,196,VALID,0.969172,
2000-09-29, 00:12:00,VALID,917.926,VALID,0,VALID,99.6836,VALID,0,VALID,19.243,VALID,187,VALID,0.480035,
2000-09-29, 00:13:00,VALID,917.909,VALID,0,VALID,99.6836,VALID,-0.0169808,VALID,19.2268,VALID,193,VALID,0.668359,
2000-09-29, 00:14:00,VALID,917.892,VALID,0,VALID,99.6824,VALID,0,VALID,19.2271,VALID,187,VALID,0.827474,
2000-09-29, 00:15:00,VALID,917.884,VALID,0,VALID,99.6862,VALID,-0.0169808,VALID,19.2343,VALID,185,VALID,0.664864,
2000-09-29, 00:16:00,VALID,917.879,VALID,0,VALID,99.7002,VALID,-0.0169808,VALID,19.2075,VALID,189,VALID,0.562934,
2000-09-29, 00:17:00,VALID,917.87,VALID,0,VALID,99.6811,VALID,-0.0169808,VALID,19.205,VALID,199,VALID,0.670703,
2000-09-29, 00:18:00,VALID,917.876,VALID,0,VALID,99.7027,VALID,0,VALID,19.1915,VALID,220,VALID,0.627902,
2000-09-29, 00:19:00,VALID,917.873,VALID,0,VALID,99.7091,VALID,0,VALID,19.1978,VALID,224,VALID,0.687078,
2000-09-29, 00:20:00,VALID,917.866,VALID,0,VALID,99.7243,VALID,-0.0169808,VALID,19.2072,VALID,215,VALID,0.685742,
2000-09-29, 00:21:00,VALID,917.856,VALID,0,VALID,99.7307,VALID,0,VALID,19.2241,VALID,208,VALID,0.617839,
2000-09-29, 00:22:00,VALID,917.853,VALID,0,VALID,99.7218,VALID,-0.0339617,VALID,19.2206,VALID,199,VALID,0.390224,
2000-09-29, 00:23:00,VALID,917.85,VALID,0,VALID,99.7052,VALID,-0.0169808,VALID,19.2112,VALID,193,VALID,0.490119,
2000-09-29, 00:24:00,VALID,917.85,VALID,0,VALID,99.704,VALID,0,VALID,19.195,VALID,193,VALID,0.404911,
2000-09-29, 00:25:00,VALID,917.832,VALID,0,VALID,99.7141,VALID,0,VALID,19.1853,VALID,198,VALID,0.224159,
2000-09-29, 00:26:00,VALID,917.833,VALID,0,VALID,99.7269,VALID,-0.0509425,VALID,19.1853,VALID,190,VALID,0.377534,
2000-09-29, 00:27:00,VALID,917.82,VALID,0,VALID,99.7281,VALID,0,VALID,19.189,VALID,193,VALID,0.724301,
2000-09-29, 00:28:00,VALID,917.806,VALID,0,VALID,99.7103,VALID,-0.0339617,VALID,19.1761,VALID,197,VALID,0.760714,
2000-09-29, 00:29:00,VALID,917.77,VALID,0,VALID,99.7052,VALID,-0.0509425,VALID,19.1634,VALID,190,VALID,0.73758,
2000-09-29, 00:30:00,VALID,917.752,VALID,0,VALID,99.6989,VALID,-0.0169808,VALID,19.15,VALID,220,VALID,0.546402,
2000-09-29, 00:31:00,VALID,917.737,VALID,0,VALID,99.6913,VALID,-0.0509425,VALID,19.1436,VALID,200,VALID,0.566189,
2000-09-29, 00:32:00,VALID,917.705,VALID,0,VALID,99.6811,VALID,-0.0509425,VALID,19.1503,VALID,196,VALID,0.703947,
2000-09-29, 00:33:00,VALID,917.694,VALID,0,VALID,99.6798,VALID,-0.0679233,VALID,19.1277,VALID,179,VALID,0.422676,
2000-09-29, 00:34:00,VALID,917.687,VALID,0,VALID,99.6506,VALID,-0.0339617,VALID,19.1147,VALID,183,VALID,0.491797,
2000-09-29, 00:35:00,VALID,917.67,VALID,0,VALID,99.6239,VALID,-0.0169808,VALID,19.0921,VALID,177,VALID,0.521875,
2000-09-29, 00:36:00,VALID,917.635,VALID,0,VALID,99.62,VALID,-0.0169808,VALID,19.0598,VALID,173,VALID,0.485431,
2000-09-29, 00:37:00,VALID,917.615,VALID,0,VALID,99.6353,VALID,-0.0339617,VALID,19.0504,VALID,166,VALID,0.632813,
2000-09-29, 00:38:00,VALID,917.598,VALID,0,VALID,99.6378,VALID,-0.0169808,VALID,19.0204,VALID,165,VALID,0.525,
2000-09-29, 00:39:00,VALID,917.597,VALID,0,VALID,99.662,VALID,0,VALID,19.0174,VALID,166,VALID,0.524639,
2000-09-29, 00:40:00,VALID,917.584,VALID,0,VALID,99.6544,VALID,-0.0509425,VALID,19.0208,VALID,153,VALID,0.540541,
2000-09-29, 00:41:00,VALID,917.594,VALID,0,VALID,99.6735,VALID,-0.0679233,VALID,19.0211,VALID,162,VALID,0.712993,
2000-09-29, 00:42:00,VALID,917.59,VALID,0,VALID,99.6836,VALID,-0.0339617,VALID,19.0208,VALID,155,VALID,0.718304,
2000-09-29, 00:43:00,VALID,917.589,VALID,0,VALID,99.6887,VALID,-0.0339617,VALID,19.0206,VALID,149,VALID,0.773638,
2000-09-29, 00:44:00,VALID,917.561,VALID,0,VALID,99.7192,VALID,-0.0509425,VALID,19.0439,VALID,179,VALID,0.798295,
2000-09-29, 00:45:00,VALID,917.55,VALID,0,VALID,99.7408,VALID,-0.0509425,VALID,19.0626,VALID,177,VALID,0.771918,
2000-09-29, 00:46:00,VALID,917.533,VALID,0,VALID,99.7218,VALID,-0.0339617,VALID,19.0695,VALID,173,VALID,0.94449,
2000-09-29, 00:47:00,VALID,917.526,VALID,0,VALID,99.7358,VALID,-0.0339617,VALID,19.0889,VALID,179,VALID,0.834736,
2000-09-29, 00:48:00,VALID,917.518,VALID,0,VALID,99.7281,VALID,-0.0679233,VALID,19.0889,VALID,190,VALID,0.750391,
2000-09-29, 00:49:00,VALID,917.492,VALID,0,VALID,99.7116,VALID,-0.0339617,VALID,19.0889,VALID,180,VALID,0.729911,
2000-09-29, 00:50:00,VALID,917.5,VALID,0,VALID,99.7078,VALID,-0.0169808,VALID,19.0762,VALID,185,VALID,0.748522,
2000-09-29, 00:51:00,VALID,917.49,VALID,0,VALID,99.7218,VALID,-0.0509425,VALID,19.0762,VALID,193,VALID,0.73943,
2000-09-29, 00:52:00,VALID,917.493,VALID,0,VALID,99.7358,VALID,0,VALID,19.0658,VALID,186,VALID,0.839509,
2000-09-29, 00:53:00,VALID,917.483,VALID,0,VALID,99.7294,VALID,-0.0339617,VALID,19.0755,VALID,191,VALID,0.80629,
2000-09-29, 00:54:00,VALID,917.475,VALID,0,VALID,99.7472,VALID,-0.0679233,VALID,19.0852,VALID,200,VALID,0.987965,
2000-09-29, 00:55:00,VALID,917.449,VALID,0,VALID,99.7472,VALID,-0.0169808,VALID,19.1088,VALID,190,VALID,0.995066,
2000-09-29, 00:56:00,VALID,917.438,VALID,0,VALID,99.7408,VALID,-0.0679233,VALID,19.0984,VALID,190,VALID,0.741518,
2000-09-29, 00:57:00,VALID,917.427,VALID,0,VALID,99.7447,VALID,-0.0169808,VALID,19.0884,VALID,202,VALID,0.475962,
2000-09-29, 00:58:00,VALID,917.399,VALID,0,VALID,99.7472,VALID,-0.0169808,VALID,19.0854,VALID,194,VALID,0.567472,
2000-09-29, 00:59:00,VALID,917.381,VALID,0,VALID,99.7485,VALID,0,VALID,19.1021,VALID,191,VALID,0.457682,
2000-09-29, 01:00:00,VALID,917.354,VALID,0,VALID,99.751,VALID,0,VALID,19.082,VALID,194,VALID,0.547075,
2000-09-29, 01:01:00,VALID,917.31,VALID,0,VALID,99.7396,VALID,0,VALID,19.0785,VALID,186,VALID,0.489984,
2000-09-29, 01:02:00,VALID,917.285,VALID,0,VALID,99.7447,VALID,0,VALID,19.0753,VALID,184,VALID,0.63125,
2000-09-29, 01:03:00,VALID,917.251,VALID,0,VALID,99.7396,VALID,-0.0169808,VALID,19.0753,VALID,189,VALID,0.584821,
2000-09-29, 01:04:00,VALID,917.214,VALID,0,VALID,99.737,VALID,-0.0339617,VALID,19.0755,VALID,193,VALID,0.425465,
2000-09-29, 01:05:00,VALID,917.185,VALID,0,VALID,99.7421,VALID,0.0169808,VALID,19.079,VALID,189,VALID,0.605239,
2000-09-29, 01:06:00,VALID,917.154,VALID,0,VALID,99.7434,VALID,0,VALID,19.0626,VALID,188,VALID,0.673214,
2000-09-29, 01:07:00,VALID,917.132,VALID,0,VALID,99.7459,VALID,0.0169808,VALID,19.0561,VALID,210,VALID,0.295873,
2000-09-29, 01:08:00,VALID,917.121,VALID,0,VALID,99.7472,VALID,0,VALID,19.0462,VALID,191,VALID,0.225296,
2000-09-29, 01:09:00,VALID,917.097,VALID,0,VALID,99.737,VALID,0,VALID,19.0432,VALID,180,VALID,0.495888,
2000-09-29, 01:10:00,VALID,917.103,VALID,0,VALID,99.7396,VALID,-0.0169808,VALID,19.0303,VALID,197,VALID,0.206473,
2000-09-29, 01:11:00,VALID,917.073,VALID,0,VALID,99.7396,VALID,0,VALID,19.0169,VALID,206,VALID,0,
2000-09-29, 01:12:00,VALID,917.075,VALID,0,VALID,99.7332,VALID,0,VALID,19.0171,VALID,211,VALID,0.0565814,
2000-09-29, 01:13:00,VALID,917.065,VALID,0,VALID,99.7345,VALID,0,VALID,19.0141,VALID,211,VALID,0,
2000-09-29, 01:14:00,VALID,917.062,VALID,0,VALID,99.7383,VALID,0,VALID,18.994,VALID,199,VALID,0,
2000-09-29, 01:15:00,VALID,917.071,VALID,0,VALID,99.7269,VALID,-0.0169808,VALID,19.0012,VALID,192,VALID,0,
2000-09-29, 01:16:00,VALID,917.066,VALID,0,VALID,99.7078,VALID,0,VALID,18.9729,VALID,176,VALID,0,
2000-09-29, 01:17:00,VALID,917.069,VALID,0,VALID,99.6836,VALID,0,VALID,18.9401,VALID,145,VALID,0.334152,
2000-09-29, 01:18:00,VALID,917.064,VALID,0,VALID,99.6735,VALID,0,VALID,18.9138,VALID,131,VALID,0.414063,
2000-09-29, 01:19:00,VALID,917.06,VALID,0,VALID,99.6811,VALID,-0.0169808,VALID,18.8949,VALID,138,VALID,0.144991,
2000-09-29, 01:20:00,VALID,917.047,VALID,0,VALID,99.6607,VALID,0,VALID,18.8785,VALID,147,VALID,0,
2000-09-29, 01:21:00,VALID,917.039,VALID,0,VALID,99.6722,VALID,0,VALID,18.8651,VALID,158,VALID,0.0198317,
2000-09-29, 01:22:00,VALID,917.037,VALID,0,VALID,99.6684,VALID,0,VALID,18.8524,VALID,158,VALID,0,
2000-09-29, 01:23:00,VALID,917.015,VALID,0,VALID,99.7065,VALID,0,VALID,18.8362,VALID,216,VALID,0.489309,
2000-09-29, 01:24:00,VALID,916.989,VALID,0,VALID,99.7116,VALID,0,VALID,18.8695,VALID,175,VALID,0.141518,
2000-09-29, 01:25:00,VALID,916.994,VALID,0,VALID,99.7256,VALID,-0.0169808,VALID,18.8658,VALID,180,VALID,0.165465,
2000-09-29, 01:26:00,VALID,916.986,VALID,0,VALID,99.6938,VALID,-0.0169808,VALID,18.8303,VALID,179,VALID,0.0106534,
2000-09-29, 01:27:00,VALID,916.978,VALID,0,VALID,99.6976,VALID,0,VALID,18.7945,VALID,180,VALID,0,
2000-09-29, 01:28:00,VALID,916.981,VALID,0,VALID,99.7002,VALID,-0.0169808,VALID,18.7945,VALID,179,VALID,0,
2000-09-29, 01:29:00,VALID,916.975,VALID,0,VALID,99.7052,VALID,0,VALID,18.7913,VALID,165,VALID,0,
2000-09-29, 01:30:00,VALID,916.973,VALID,0,VALID,99.7052,VALID,0,VALID,18.7749,VALID,143,VALID,0,
2000-09-29, 01:31:00,VALID,916.97,VALID,0,VALID,99.69,VALID,0,VALID,18.7622,VALID,143,VALID,0,
2000-09-29, 01:32:00,VALID,916.966,VALID,0,VALID,99.7129,VALID,0,VALID,18.7592,VALID,143,VALID,0,
2000-09-29, 01:33:00,VALID,916.977,VALID,0,VALID,99.7002,VALID,0,VALID,18.7532,VALID,143,VALID,0,
2000-09-29, 01:34:00,VALID,916.975,VALID,0,VALID,99.6887,VALID,-0.0339617,VALID,18.7299,VALID,143,VALID,0.0729911,
2000-09-29, 01:35:00,VALID,916.97,VALID,0,VALID,99.7052,VALID,0.0169808,VALID,18.7297,VALID,143,VALID,0.379607,
2000-09-29, 01:36:00,VALID,916.966,VALID,0,VALID,99.6989,VALID,-0.0169808,VALID,18.7269,VALID,143,VALID,0.109164,
2000-09-29, 01:37:00,VALID,916.942,VALID,0,VALID,99.69,VALID,0,VALID,18.7211,VALID,143,VALID,0,
2000-09-29, 01:38:00,VALID,916.929,VALID,0,VALID,99.6989,VALID,-0.0169808,VALID,18.7112,VALID,144,VALID,0,
2000-09-29, 01:39:00,VALID,916.926,VALID,0,VALID,99.7154,VALID,-0.0339617,VALID,18.7149,VALID,164,VALID,0,
2000-09-29, 01:40:00,VALID,916.916,VALID,0,VALID,99.6963,VALID,0,VALID,18.7015,VALID,169,VALID,0,
2000-09-29, 01:41:00,VALID,916.922,VALID,0,VALID,99.6938,VALID,-0.0169808,VALID,18.6814,VALID,183,VALID,0,
2000-09-29, 01:42:00,VALID,916.905,VALID,0,VALID,99.6925,VALID,0,VALID,18.6817,VALID,194,VALID,0,
2000-09-29, 01:43:00,VALID,916.893,VALID,0,VALID,99.6989,VALID,0,VALID,18.6757,VALID,194,VALID,0,
2000-09-29, 01:44:00,VALID,916.885,VALID,0,VALID,99.7002,VALID,-0.0169808,VALID,18.6757,VALID,194,VALID,0,
2000-09-29, 01:45:00,VALID,916.892,VALID,0,VALID,99.6938,VALID,-0.0169808,VALID,18.6884,VALID,194,VALID,0,
2000-09-29, 01:46:00,VALID,916.887,VALID,0,VALID,99.6849,VALID,0,VALID,18.666,VALID,193,VALID,0,
2000-09-29, 01:47:00,VALID,916.895,VALID,0,VALID,99.6391,VALID,0,VALID,18.624,VALID,154,VALID,0,
2000-09-29, 01:48:00,VALID,916.885,VALID,0,VALID,99.6251,VALID,-0.0339617,VALID,18.579,VALID,143,VALID,0,
2000-09-29, 01:49:00,VALID,916.892,VALID,0,VALID,99.662,VALID,-0.0169808,VALID,18.5853,VALID,140,VALID,0,
2000-09-29, 01:50:00,VALID,916.871,VALID,0,VALID,99.7141,VALID,-0.0509425,VALID,18.6312,VALID,150,VALID,0,
2000-09-29, 01:51:00,VALID,916.859,VALID,0,VALID,99.7904,VALID,-0.0169808,VALID,18.6889,VALID,195,VALID,0,
2000-09-29, 01:52:00,VALID,916.829,VALID,0,VALID,99.8006,VALID,-0.0339617,VALID,18.744,VALID,198,VALID,0,
2000-09-29, 01:53:00,VALID,916.818,VALID,0,VALID,99.7714,VALID,-0.0169808,VALID,18.7604,VALID,210,VALID,0,
2000-09-29, 01:54:00,VALID,916.81,VALID,0,VALID,99.7752,VALID,-0.0679233,VALID,18.7698,VALID,202,VALID,0,
2000-09-29, 01:55:00,VALID,916.786,VALID,0,VALID,99.7663,VALID,-0.0169808,VALID,18.7825,VALID,198,VALID,0.167318,
2000-09-29, 01:56:00,VALID,916.789,VALID,0,VALID,99.7116,VALID,-0.0339617,VALID,18.7507,VALID,194,VALID,0.0185033,
2000-09-29, 01:57:00,VALID,916.786,VALID,0,VALID,99.6289,VALID,-0.0339617,VALID,18.6012,VALID,150,VALID,0,
2000-09-29, 01:58:00,VALID,916.778,VALID,0,VALID,99.5488,VALID,-0.0339617,VALID,18.5147,VALID,103,VALID,0,
2000-09-29, 01:59:00,VALID,916.776,VALID,0,VALID,99.6188,VALID,-0.0169808,VALID,18.5269,VALID,89,VALID,0,
2000-09-29, 02:00:00,VALID,916.771,VALID,0,VALID,99.6582,VALID,-0.0679233,VALID,18.5465,VALID,90,VALID,0,
2000-09-29, 02:01:00,VALID,916.769,VALID,0,VALID,99.6862,VALID,-0.0509425,VALID,18.579,VALID,99,VALID,0,
2000-09-29, 02:02:00,VALID,916.75,VALID,0,VALID,99.69,VALID,-0.0849042,VALID,18.556,VALID,119,VALID,0.0966518,
2000-09-29, 02:03:00,VALID,916.768,VALID,0,VALID,99.7294,VALID,-0.0509425,VALID,18.5756,VALID,133,VALID,0.914063,
2000-09-29, 02:04:00,VALID,916.757,VALID,0,VALID,99.7319,VALID,-0.101885,VALID,18.6116,VALID,148,VALID,0.809755,
2000-09-29, 02:05:00,VALID,916.755,VALID,0,VALID,99.7294,VALID,-0.0679233,VALID,18.5954,VALID,153,VALID,0.789474,
2000-09-29, 02:06:00,VALID,916.742,VALID,0,VALID,99.7218,VALID,-0.101885,VALID,18.5989,VALID,156,VALID,0.58683,
2000-09-29, 02:07:00,VALID,916.73,VALID,0,VALID,99.7497,VALID,-0.0509425,VALID,18.6019,VALID,149,VALID,0.481571,
2000-09-29, 02:08:00,VALID,916.712,VALID,0,VALID,99.7637,VALID,-0.0679233,VALID,18.615,VALID,154,VALID,0.687737,
2000-09-29, 02:09:00,VALID,916.691,VALID,0,VALID,99.7663,VALID,-0.0849042,VALID,18.6183,VALID,163,VALID,0.674913,
2000-09-29, 02:10:00,VALID,916.678,VALID,0,VALID,99.7536,VALID,-0.0849042,VALID,18.6215,VALID,173,VALID,0.812089,
2000-09-29, 02:11:00,VALID,916.661,VALID,0,VALID,99.7866,VALID,-0.101885,VALID,18.6411,VALID,197,VALID,0.888221,
2000-09-29, 02:12:00,VALID,916.643,VALID,0,VALID,99.8184,VALID,-0.101885,VALID,18.6635,VALID,204,VALID,1.06738,
2000-09-29, 02:13:00,VALID,916.626,VALID,0,VALID,99.8159,VALID,-0.101885,VALID,18.6963,VALID,210,VALID,1.14777,
2000-09-29, 02:14:00,VALID,916.606,VALID,0,VALID,99.8121,VALID,-0.0849042,VALID,18.7117,VALID,203,VALID,0.959459,
2000-09-29, 02:15:00,VALID,916.598,VALID,0,VALID,99.8095,VALID,-0.0509425,VALID,18.7174,VALID,196,VALID,0.692325,
2000-09-29, 02:16:00,VALID,916.589,VALID,0,VALID,99.7993,VALID,0.0169808,VALID,18.7232,VALID,189,VALID,0.6625,
2000-09-29, 02:17:00,VALID,916.587,VALID,0,VALID,99.8019,VALID,0.0169808,VALID,18.7137,VALID,198,VALID,0.937901,
2000-09-29, 02:18:00,VALID,916.578,VALID,0,VALID,99.7841,VALID,0.0339617,VALID,18.7204,VALID,178,VALID,0.695101,
2000-09-29, 02:19:00,VALID,916.571,VALID,0,VALID,99.7955,VALID,0,VALID,18.7267,VALID,180,VALID,0.782278,
2000-09-29, 02:20:00,VALID,916.559,VALID,0,VALID,99.7968,VALID,0.0169808,VALID,18.7237,VALID,204,VALID,0.832143,
2000-09-29, 02:21:00,VALID,916.542,VALID,0,VALID,99.8044,VALID,0.0169808,VALID,18.7232,VALID,214,VALID,1.02504,
2000-09-29, 02:22:00,VALID,916.535,VALID,0,VALID,99.8057,VALID,0.0169808,VALID,18.7329,VALID,212,VALID,1.02817,
2000-09-29, 02:23:00,VALID,916.532,VALID,0,VALID,99.8108,VALID,0.0509425,VALID,18.7423,VALID,214,VALID,0.692925,
2000-09-29, 02:24:00,VALID,916.534,VALID,0,VALID,99.8133,VALID,0.0169808,VALID,18.7458,VALID,212,VALID,0.208882,
2000-09-29, 02:25:00,VALID,916.517,VALID,0,VALID,99.8197,VALID,0.0339617,VALID,18.7423,VALID,198,VALID,0.277043,
2000-09-29, 02:26:00,VALID,916.503,VALID,0,VALID,99.8108,VALID,0.0509425,VALID,18.752,VALID,187,VALID,0.183398,
2000-09-29, 02:27:00,VALID,916.48,VALID,0,VALID,99.8146,VALID,0.0339617,VALID,18.7553,VALID,191,VALID,0.547321,
2000-09-29, 02:28:00,VALID,916.462,VALID,0,VALID,99.8171,VALID,0.0509425,VALID,18.7583,VALID,216,VALID,0.166385,
2000-09-29, 02:29:00,VALID,916.471,VALID,0,VALID,99.8082,VALID,0.0679233,VALID,18.7453,VALID,222,VALID,0.384881,
2000-09-29, 02:30:00,VALID,916.474,VALID,0,VALID,99.8044,VALID,0,VALID,18.7465,VALID,216,VALID,0.705357,
2000-09-29, 02:31:00,VALID,916.455,VALID,0,VALID,99.8095,VALID,-0.0509425,VALID,18.7401,VALID,217,VALID,0.932893,
2000-09-29, 02:32:00,VALID,916.457,VALID,0,VALID,99.8159,VALID,-0.0509425,VALID,18.7537,VALID,233,VALID,0.875845,
2000-09-29, 02:33:00,VALID,916.455,VALID,0,VALID,99.8133,VALID,-0.0169808,VALID,18.7373,VALID,222,VALID,0.784745,
2000-09-29, 02:34:00,VALID,916.452,VALID,0,VALID,99.8197,VALID,-0.0679233,VALID,18.747,VALID,196,VALID,1.01429,
2000-09-29, 02:35:00,VALID,916.462,VALID,0,VALID,99.8108,VALID,-0.0169808,VALID,18.7468,VALID,184,VALID,0.589944,
2000-09-29, 02:36:00,VALID,916.46,VALID,0,VALID,99.8171,VALID,-0.0169808,VALID,18.7304,VALID,176,VALID,0.514915,
2000-09-29, 02:37:00,VALID,916.451,VALID,0,VALID,99.8121,VALID,-0.0509425,VALID,18.7278,VALID,184,VALID,0.482205,
2000-09-29, 02:38:00,VALID,916.447,VALID,0,VALID,99.8171,VALID,-0.0679233,VALID,18.7241,VALID,183,VALID,0.275699,
2000-09-29, 02:39:00,VALID,916.437,VALID,0,VALID,99.8222,VALID,-0.0509425,VALID,18.7306,VALID,168,VALID,0.470553,
2000-09-29, 02:40:00,VALID,916.417,VALID,0,VALID,99.8286,VALID,-0.0509425,VALID,18.7237,VALID,178,VALID,0.459375,
2000-09-29, 02:41:00,VALID,916.402,VALID,0,VALID,99.8311,VALID,-0.0679233,VALID,18.7308,VALID,165,VALID,0.705134,
2000-09-29, 02:42:00,VALID,916.385,VALID,0,VALID,99.8311,VALID,-0.0339617,VALID,18.7278,VALID,171,VALID,0.524704,
2000-09-29, 02:43:00,VALID,916.375,VALID,0,VALID,99.8286,VALID,-0.0339617,VALID,18.7115,VALID,168,VALID,0.424862,
2000-09-29, 02:44:00,VALID,916.362,VALID,0,VALID,99.8273,VALID,-0.0679233,VALID,18.705,VALID,169,VALID,0.433036,
2000-09-29, 02:45:00,VALID,916.347,VALID,0,VALID,99.8146,VALID,-0.0339617,VALID,18.6886,VALID,167,VALID,0.542268,
2000-09-29, 02:46:00,VALID,916.336,VALID,0,VALID,99.821,VALID,-0.0169808,VALID,18.669,VALID,189,VALID,0.760346,
2000-09-29, 02:47:00,VALID,916.328,VALID,0,VALID,99.8235,VALID,0,VALID,18.6623,VALID,216,VALID,0.560033,
2000-09-29, 02:48:00,VALID,916.319,VALID,0,VALID,99.8324,VALID,-0.0169808,VALID,18.6561,VALID,223,VALID,0.41942,
2000-09-29, 02:49:00,VALID,916.313,VALID,0,VALID,99.8451,VALID,-0.0339617,VALID,18.6593,VALID,239,VALID,0.460537,
2000-09-29, 02:50:00,VALID,916.307,VALID,0,VALID,99.8515,VALID,-0.0509425,VALID,18.6595,VALID,250,VALID,0.443892,
2000-09-29, 02:51:00,VALID,916.307,VALID,0,VALID,99.8515,VALID,0,VALID,18.6725,VALID,266,VALID,0.284722,
2000-09-29, 02:52:00,VALID,916.316,VALID,0,VALID,99.8426,VALID,-0.0509425,VALID,18.6722,VALID,307,VALID,0.604441,
2000-09-29, 02:53:00,VALID,916.328,VALID,0,VALID,99.8413,VALID,-0.0169808,VALID,18.6533,VALID,296,VALID,0.286859,
2000-09-29, 02:54:00,VALID,916.322,VALID,0,VALID,99.8451,VALID,-0.0169808,VALID,18.6598,VALID,266,VALID,0.0285156,
2000-09-29, 02:55:00,VALID,916.337,VALID,0,VALID,99.8515,VALID,-0.0169808,VALID,18.6566,VALID,265,VALID,0.471205,
2000-09-29, 02:56:00,VALID,916.332,VALID,0,VALID,99.8616,VALID,0,VALID,18.6531,VALID,240,VALID,0.132179,
2000-09-29, 02:57:00,VALID,916.322,VALID,0,VALID,99.8604,VALID,-0.0339617,VALID,18.6598,VALID,242,VALID,0.249081,
2000-09-29, 02:58:00,VALID,916.323,VALID,0,VALID,99.854,VALID,-0.0169808,VALID,18.6529,VALID,247,VALID,0.46183,
2000-09-29, 02:59:00,VALID,916.321,VALID,0,VALID,99.8616,VALID,-0.0339617,VALID,18.663,VALID,259,VALID,0.744591,
2000-09-29, 03:00:00,VALID,916.294,VALID,0,VALID,99.8769,VALID,-0.0509425,VALID,18.6697,VALID,253,VALID,0.744721,
2000-09-29, 03:01:00,VALID,916.288,VALID,0,VALID,99.8655,VALID,-0.0679233,VALID,18.6727,VALID,245,VALID,0.530839,
2000-09-29, 03:02:00,VALID,916.265,VALID,0,VALID,99.854,VALID,-0.0169808,VALID,18.6632,VALID,223,VALID,0.495759,
2000-09-29, 03:03:00,VALID,916.269,VALID,0,VALID,99.8527,VALID,0,VALID,18.6469,VALID,239,VALID,0.35637,
2000-09-29, 03:04:00,VALID,916.267,VALID,0,VALID,99.8515,VALID,-0.0169808,VALID,18.6337,VALID,233,VALID,0.249763,
2000-09-29, 03:05:00,VALID,916.266,VALID,0,VALID,99.8655,VALID,-0.0169808,VALID,18.621,VALID,227,VALID,0,
2000-09-29, 03:06:00,VALID,916.281,VALID,0,VALID,99.8527,VALID,-0.0169808,VALID,18.6083,VALID,216,VALID,0,
2000-09-29, 03:07:00,VALID,916.284,VALID,0,VALID,99.8566,VALID,-0.0339617,VALID,18.5823,VALID,198,VALID,0,
2000-09-29, 03:08:00,VALID,916.303,VALID,0,VALID,99.8477,VALID,-0.0339617,VALID,18.5793,VALID,188,VALID,0.107813,
2000-09-29, 03:09:00,VALID,916.326,VALID,0,VALID,99.8782,VALID,-0.0339617,VALID,18.5656,VALID,180,VALID,0.656473,
2000-09-29, 03:10:00,VALID,916.336,VALID,0,VALID,99.8718,VALID,-0.0169808,VALID,18.576,VALID,171,VALID,0.637035,
2000-09-29, 03:11:00,VALID,916.367,VALID,0,VALID,99.8731,VALID,-0.0169808,VALID,18.5597,VALID,170,VALID,0.537454,
2000-09-29, 03:12:00,VALID,916.38,VALID,0,VALID,99.8591,VALID,-0.0169808,VALID,18.5398,VALID,169,VALID,0.403571,
2000-09-29, 03:13:00,VALID,916.404,VALID,0,VALID,99.8973,VALID,-0.0339617,VALID,18.5433,VALID,170,VALID,0,
2000-09-29, 03:14:00,VALID,916.401,VALID,0,VALID,99.8947,VALID,-0.0169808,VALID,18.5567,VALID,170,VALID,0,
2000-09-29, 03:15:00,VALID,916.429,VALID,0,VALID,99.8884,VALID,-0.0339617,VALID,18.5465,VALID,170,VALID,0,
2000-09-29, 03:16:00,VALID,916.439,VALID,0,VALID,99.8769,VALID,-0.0679233,VALID,18.5569,VALID,170,VALID,0,
2000-09-29, 03:17:00,VALID,916.453,VALID,0,VALID,99.882,VALID,-0.0679233,VALID,18.5368,VALID,170,VALID,0,
2000-09-29, 03:18:00,VALID,916.469,VALID,0,VALID,99.8884,VALID,-0.0509425,VALID,18.5375,VALID,170,VALID,0,
2000-09-29, 03:19:00,VALID,916.475,VALID,0,VALID,99.8795,VALID,-0.0339617,VALID,18.5209,VALID,170,VALID,0,
2000-09-29, 03:20:00,VALID,916.479,VALID,0,VALID,99.9023,VALID,-0.0509425,VALID,18.5341,VALID,166,VALID,0.308183,
2000-09-29, 03:21:00,VALID,916.482,VALID,0,VALID,99.9316,VALID,-0.0339617,VALID,18.5597,VALID,169,VALID,0.335337,
2000-09-29, 03:22:00,VALID,916.489,VALID,0,VALID,99.896,VALID,-0.0339617,VALID,18.5569,VALID,183,VALID,0,
2000-09-29, 03:23:00,VALID,916.49,VALID,0,VALID,99.9011,VALID,-0.0679233,VALID,18.5472,VALID,205,VALID,0,
2000-09-29, 03:24:00,VALID,916.49,VALID,0,VALID,99.9062,VALID,0,VALID,18.5472,VALID,218,VALID,0.539696,
2000-09-29, 03:25:00,VALID,916.485,VALID,0,VALID,99.9189,VALID,-0.0509425,VALID,18.5435,VALID,215,VALID,0.898897,
2000-09-29, 03:26:00,VALID,916.494,VALID,0,VALID,99.9176,VALID,-0.0339617,VALID,18.553,VALID,193,VALID,0.435177,
2000-09-29, 03:27:00,VALID,916.488,VALID,0,VALID,99.9316,VALID,-0.0509425,VALID,18.5627,VALID,188,VALID,0.320513,
2000-09-29, 03:28:00,VALID,916.477,VALID,0,VALID,99.9341,VALID,-0.0169808,VALID,18.5726,VALID,192,VALID,0.701858,
2000-09-29, 03:29:00,VALID,916.475,VALID,0,VALID,99.9456,VALID,-0.0339617,VALID,18.5756,VALID,229,VALID,0.67023,
2000-09-29, 03:30:00,VALID,916.451,VALID,0,VALID,99.9532,VALID,-0.0169808,VALID,18.5915,VALID,220,VALID,0.478348,
2000-09-29, 03:31:00,VALID,916.424,VALID,0,VALID,99.9596,VALID,0.0169808,VALID,18.6044,VALID,224,VALID,0.912059,
2000-09-29, 03:32:00,VALID,916.409,VALID,0,VALID,99.9596,VALID,0,VALID,18.6176,VALID,217,VALID,1.16714,
2000-09-29, 03:33:00,VALID,916.406,VALID,0,VALID,99.9621,VALID,-0.0169808,VALID,18.624,VALID,222,VALID,1.24023,
2000-09-29, 03:34:00,VALID,916.389,VALID,0,VALID,99.9735,VALID,-0.0339617,VALID,18.6275,VALID,228,VALID,1.07175,